Regional Weather Roundup
Issued by NWS

Home | Current Version | Previous Version | Graphics & Text | Print | Product List | Glossary On
Versions: 1 2 3 4 5 6 7 8 9 10 11 12 13 14 15 16 17 18 19 20 21 22 23 24 25 26 27 28 29 30 31 32 33 34 35 36 37 38 39 40 41 42 43 44 45 46 47 48 49 50
261
ASUS45 KCYS 180210
RWRWY

WYOMING REGIONAL WEATHER ROUNDUP
NATIONAL WEATHER SERVICE CHEYENNE WY
700 PM MST SAT FEB 17 2018

NOTE:  "FAIR" INDICATES FEW OR NO CLOUDS BELOW 12,000 FEET
WITH NO SIGNIFICANT WEATHER AND/OR OBSTRUCTIONS TO VISIBILITY.

WYZ001-180300-
YELLOWSTONE NATIONAL PARK

CITY           SKY/WX    TMP DP  RH WIND       PRES   REMARKS
LK YELLOWSTONE   N/A     23  20  88 VRB7      29.64F WCI  15
W YELLOWSTONE  NOT AVBL

$$
WYZ002>013-054>058-071-098>099-180300-
NORTHERN WYOMING

CITY           SKY/WX    TMP DP  RH WIND       PRES   REMARKS
JACKSON        MIX PCPN  32  21  64 SW22      29.75S WCI  19
CODY           FAIR      38  22  52 W13G24    29.54F WCI  30
GREYBULL       FAIR      34  23  64 CALM      29.56F
WORLAND        FAIR      27  20  75 SW5       29.56F WCI  22
SHERIDAN       FAIR      26  21  81 W5        29.56F WCI  20
BUFFALO        FAIR      30  21  69 NW13      29.54F WCI  20
GILLETTE       FAIR      35  22  58 S12       29.58F WCI  27
HULETT         CLOUDY    23  19  86 CALM      29.63F
NEWCASTLE      FAIR      32  19  59 S17G23    29.70F WCI  21

$$
WYZ014>020-022>026-101>103-180300-
CENTRAL WYOMING

CITY           SKY/WX    TMP DP  RH WIND       PRES   REMARKS
BIG PINEY      FAIR      33  12  41 SW17G28   29.81F WCI  22
PINEDALE       CLOUDY    34  12  40 S8        29.83F WCI  27
DUBOIS           N/A    N/A N/A N/A MISG        N/A
LANDER         FAIR      42  15  33 SW22G31   29.65F
RIVERTON       FAIR      38  15  39 S12       29.65F WCI  30
CASPER         FAIR      42  10  27 SW23G30   29.70F
DOUGLAS        FAIR      44  13  28 W21G32    29.67F

$$
WYZ021-027>030-104>119-180300-
SOUTHERN WYOMING

CITY           SKY/WX    TMP DP  RH WIND       PRES   REMARKS
EVANSTON       FAIR      36  11  35 SW16      29.89F WCI  26
FORT BRIDGER   FAIR      40   5  23 SW23G31   29.90S WCI  30
ROCK SPRINGS   FAIR      41  -1  17 SW13G25   29.87F
DIXON          CLOUDY    36  16  44 S14G20    29.98F WCI  27
RAWLINS        FAIR      37   9  31 SW26G40   29.85F WCI  25
SARATOGA       CLOUDY    36  14  41 S14       29.92F WCI  27
LARAMIE        FAIR      33   8  35 S10G26    29.88S WCI  25
CHEYENNE       FAIR      35  10  35 SW6       29.85F WCI  30
TORRINGTON     FAIR      47   8  20 S14       29.77F
PINE BLUFFS    FAIR      36  12  38 MISG      29.85F

$$




USA.gov is the U.S. government's official web portal to all federal, state and local government web resources and services.